Regional Weather Roundup
Issued by NWS

Home | Current Version | Previous Version | Graphics & Text | Print | Product List | Glossary On
Versions: 1 2 3 4 5 6 7 8 9 10 11 12 13 14 15 16 17 18 19 20 21 22 23 24 25 26 27
000
ASUS45 KPSR 302110
RWRAZ

ARIZONA HOURLY REGIONAL WEATHER ROUNDUP
NATIONAL WEATHER SERVICE PHOENIX AZ
200 PM MST TUE AUG 30 2016

NOTE: FAIR INDICATES FEW OR NO CLOUDS BELOW 12,000 FEET WITH NO
SIGNIFICANT WEATHER AND/OR OBSTRUCTIONS TO VISIBILITY.

AZZ001>003-036-302200-
NORTHWEST ARIZONA

CITY           SKY/WX    TMP DP  RH WIND       PRES   REMARKS
BULLHEAD CITY  SUNNY    108  46  12 SW12G17   29.78F HX 103
KINGMAN        SUNNY     96  37  12 E8        30.03F
$$

AZZ004>008-015-016-018-302200-
NORTH CENTRAL ARIZONA

CITY           SKY/WX    TMP DP  RH WIND       PRES   REMARKS
GRAND CANYON   MOSUNNY   82  36  19 NE13      30.30F
PRESCOTT       MOSUNNY   86  43  22 SE5       30.17F
FLAGSTAFF      MOSUNNY   76  40  27 E9G20     30.31F
PAYSON         PTSUNNY   79  50  36 NW8G17    30.22F
PAGE           SUNNY     91  37  15 VRB6      30.12F
$$

AZZ009>014-017-302200-
NORTHEAST ARIZONA

CITY           SKY/WX    TMP DP  RH WIND       PRES   REMARKS
WINSLOW        SUNNY     89  40  17 N12       30.16F
SAINT JOHNS    MOSUNNY   85  42  22 N6        30.19F
WINDOW ROCK    PTSUNNY   76  45  33 NW12      30.32F
SHOW LOW       MOSUNNY   77  39  25 CALM      30.26F
$$

AZZ023-302200-
GREATER PHOENIX AREA

CITY           SKY/WX    TMP DP  RH WIND       PRES   REMARKS
PHOENIX        MOSUNNY  104  52  17 NW6       29.81F HX 101
BUCKEYE        SUNNY    102  50  17 SE3       29.83F
GLENDALE       MOSUNNY  106  52  16 NE8       29.84F HX 103
LUKE AFB       SUNNY    105  53  17 S6        29.81F HX 103
DEER VALLEY    SUNNY    102  51  18 MISG      29.84F
SCOTTSDALE     SUNNY    103  51  17 W3        29.85F HX 100
MESA-FALCON      N/A    N/A N/A N/A E13       29.82F
MESA-GATEWAY   MOSUNNY  102  52  18 S8        29.85F HX 100
CHANDLER       MOSUNNY  104  50  16 NE7       29.83F HX 101
$$

AZZ027-028-302200-
SOUTHWEST MARICOPA COUNTY AND PINAL COUNTY

CITY           SKY/WX    TMP DP  RH WIND       PRES   REMARKS
CASA GRANDE    SUNNY    104  50  16 NE6       29.87F HX 101
GILA BEND      MOSUNNY  107  41  11 VRB3      29.77F HX 101
$$

AZZ503-504-507>509-302200-
SOUTHEAST ARIZONA

CITY           SKY/WX    TMP DP  RH WIND       PRES   REMARKS
TUCSON         MOSUNNY   96  51  21 SE10G17   29.95F
DAVIS-MONTHAN  MOSUNNY   96  52  22 S8        29.94F
RYAN FIELD     SUNNY     99  50  19 SE9G16    29.94F
NOGALES        PTSUNNY   85  53  33 MISG      30.04F
SIERRA VISTA   MOSUNNY   88  50  27 E17       30.12F
DOUGLAS        MOSUNNY   87  53  31 E12       30.08F
SAFFORD        MOSUNNY   95  52  23 S10       30.00F
$$

AZZ020-021-025-026-031-302200-
SOUTHWEST ARIZONA

CITY           SKY/WX    TMP DP  RH WIND       PRES   REMARKS
YUMA           MOSUNNY  111  43  10 SW9       29.72F HX 105
$$

CAZ031-033-041-043-047-048-061-302200-
SOUTHERN CALIFORNIA

CITY           SKY/WX    TMP DP  RH WIND       PRES   REMARKS
DOWNTOWN L.A.  SUNNY     85  61  44 W6        29.81F
L.A. AIRPORT   MOSUNNY   78  64  61 W15       29.83F
SAN DIEGO      MOSUNNY   74  64  71 SW10      29.85F
BURBANK        SUNNY     95  60  31 VRB7      29.81F
ONTARIO        MOSUNNY   97  56  25 W13       29.82F
RIVERSIDE      SUNNY    101  47  16 W13       29.80F
PALM SPRINGS   SUNNY    113  36   7 SE12      29.73F HX 106
EL CENTRO NAS  MOSUNNY  111  39   8 NE3       29.72F HX 105
IMPERIAL       SUNNY    113  48  11 SE8       29.70F HX 109
BLYTHE         MOSUNNY  110  42  10 S9        29.75F HX 104
NEEDLES        SUNNY    110  43  10 VRB6      29.80F HX 104
$$

NVZ020-UTZ003-302200-
SOUTHERN NEVADA-UTAH

CITY           SKY/WX    TMP DP  RH WIND       PRES   REMARKS
LAS VEGAS      MOSUNNY  103  31   8 NE12      29.89F
SALT LAKE CITY PTSUNNY   97  24   7 W9        30.06F
$$

NMZ009-TXZ055-302200-
NEW MEXICO-WEST TEXAS

CITY           SKY/WX    TMP DP  RH WIND       PRES   REMARKS
ALBUQUERQUE    MOSUNNY   79  48  33 E9G21     30.24F
EL PASO        CLOUDY    74  65  73 NE3       30.15F
$$


........................KEY........................
SKY/WX - SKY CONDITION/WEATHER
TMP    - TEMPERATURE IN FAHRENHEIT
DP     - DEW POINT IN FAHRENHEIT
RH     - RELATIVE HUMIDITY IN PERCENT
WIND   - DIRECTION AND SPEED IN MILES PER HOUR (MPH)
VRB    - VARIABLE WIND DIRECTION
PRES   - MEAN SEA LEVEL PRESSURE IN INCHES OF MERCURY
         F - FALLING PRESSURE   R - RISING PRESSURE
         S - STEADY PRESSURE
VSB    - VISIBILITY IN MILES
HX     - HEAT INDEX IN FAHRENHEIT
WCI    - WIND CHILL INDEX IN FAHRENHEIT
TC     - TEMPERATURE IN CELSIUS WHICH IS ALSO KNOWN AS
         TEMPERATURE IN CENTIGRADE
AFB    - AIR FORCE BASE
         LUKE AFB IS LUKE AIR FORCE BASE
         DAVIS-MONTHAN IS DAVIS-MONTHAN AIR FORCE BASE
NAS    - NAVAL AIR STATION
         EL CENTRO NAS IS EL CENTRO NAVAL AIR STATION
N/A    - NOT AVAILABLE





USA.gov is the U.S. government's official web portal to all federal, state and local government web resources and services.